Home   Weather   Memmingen   Past weeks

Flag for Germany Past Weather in Memmingen, Bavaria, Germany — Yesterday and Last 2 Weeks

Now
55 °F

Broken clouds.


Feels Like: 54 °F
Forecast: 35 / 40 °F
Wind: 7 mph from Southwest

Location: Laupheim Airport

Current Time: Apr 25, 2017 at 2:52:02 pm

Latest Report: Apr 25, 2017 at 1:20 pm


Visibility: N/A

Pressure: 29.74 "Hg (27.68 "Hg at 602m altitude)

Humidity: 59%

Dew Point: 41 °F

Location of MemmingenLocation

Past Weather in Memmingen — Graph

°F

Memmingen Temperature Yesterday

Maximum temperature yesterday: 63 °F (at 5:20 pm)
Minimum temperature yesterday: 28 °F (at 6:20 am)
Average temperature yesterday: 46 °F

High & Low Weather Summary for the Past Weeks

 TemperatureHumidityPressure
High72 °F (Apr 10, 2:20 pm)100% (Apr 18, 2:58 am)30.51 "Hg (Apr 18, 2:58 am)
Low27 °F (Apr 20, 4:20 am)22% (Apr 10, 5:20 pm)29.74 "Hg (Apr 25, 4:20 am)
Average44 °F67%30.15 "Hg
* Reported Apr 10 1:20 pm — Apr 25 1:20 pm, Memmingen, Weather by CustomWeather, © 2017

Note: Actual official high and low records may vary slightly from our data, if they occured in-between our weather recording intervals... More about our weather records

Advertising

Memmingen Weather History for the Previous 24 Hours

Scroll right to see more
 ConditionsComfort  
Time TempWeatherWind HumidityBarometerVisibility
1:20 pm
Tue, Apr 25
55 °FBroken clouds.7 mph59%29.74 "HgN/A
12:20 pm54 °FPartly sunny.6 mph58%29.77 "HgN/A
11:20 am54 °FBroken clouds.5 mph58%29.77 "HgN/A
10:20 am52 °FBroken clouds.7 mph58%29.77 "HgN/A
9:20 am52 °FSprinkles. Broken clouds.5 mph82%29.77 "HgN/A
8:20 am50 °FSprinkles. Partly sunny.8 mph88%29.77 "HgN/A
7:37 am50 °FPartly sunny.8 mph82%29.74 "HgN/A
7:20 am50 °FRain showers. Partly sunny.8 mph76%29.74 "Hg4 mi
6:20 am52 °FPartly sunny.7 mph67%29.74 "HgN/A
5:20 am52 °FPassing clouds.10 mph62%29.74 "HgN/A
4:20 am50 °FPassing clouds.6 mph67%29.74 "HgN/A
3:20 am48 °FPassing clouds.5 mph66%29.77 "HgN/A
2:20 am48 °FPassing clouds.6 mph62%29.77 "HgN/A
1:20 am48 °FPartly cloudy.5 mph62%29.77 "HgN/A
12:20 am50 °FPassing clouds.6 mph54%29.80 "HgN/A
12:00 am50 °FPassing clouds.6 mph54%29.80 "HgN/A
11:20 pm
Mon, Apr 24
48 °FPassing clouds.5 mph58%29.80 "HgN/A
10:20 pm52 °FPassing clouds.3 mph50%29.83 "HgN/A
9:20 pm55 °FPassing clouds.5 mph44%29.83 "HgN/A
8:20 pm57 °FPartly sunny.5 mph41%29.83 "HgN/A
7:20 pm61 °FPartly sunny.7 mph34%29.86 "HgN/A
6:20 pm63 °FPartly sunny.6 mph34%29.86 "HgN/A
5:20 pm63 °FPartly sunny.5 mph34%29.89 "HgN/A
4:20 pm61 °FScattered clouds.5 mph36%29.92 "HgN/A
3:20 pm59 °FScattered clouds.6 mph39%29.95 "HgN/A
2:20 pm57 °FPassing clouds.6 mph39%29.98 "HgN/A
Weather by CustomWeather, © 2017

See weather overviewHow to use our weather pages